TimeMST,TemperatureF,Dew PointF,Humidity,Sea Level PressureIn,VisibilityMPH,Wind Direction,Wind SpeedMPH,Gust SpeedMPH,PrecipitationIn,Events,Conditions,WindDirDegrees,DateUTC
12:51 AM,28.0,21.9,78,30.47,4.0,Calm,Calm,-,N/A,,Haze,0,2013-01-09 07:51:00
1:51 AM,28.0,23.0,81,30.47,3.0,Calm,Calm,-,N/A,,Haze,0,2013-01-09 08:51:00
2:51 AM,27.0,23.0,85,30.48,3.0,SSE,3.5,-,N/A,,Overcast,150,2013-01-09 09:51:00
3:51 AM,26.1,21.9,84,30.45,3.0,South,3.5,-,N/A,,Overcast,170,2013-01-09 10:51:00
4:17 AM,23.0,19.4,86,30.35,2.5,Calm,Calm,-,N/A,,Mostly Cloudy,0,2013-01-09 11:17:00
4:45 AM,21.2,19.4,93,30.34,1.8,Calm,Calm,-,N/A,,Mostly Cloudy,0,2013-01-09 11:45:00
4:51 AM,21.9,19.9,92,30.44,1.8,Calm,Calm,-,N/A,,Mostly Cloudy,0,2013-01-09 11:51:00
5:03 AM,19.4,17.6,93,30.32,0.2,NNE,3.5,-,N/A,Fog,Light Freezing Fog,20,2013-01-09 12:03:00
5:17 AM,19.4,17.6,93,30.31,1.2,Calm,Calm,-,N/A,,Overcast,0,2013-01-09 12:17:00
5:27 AM,19.4,17.6,93,30.30,3.0,Calm,Calm,-,N/A,,Mostly Cloudy,0,2013-01-09 12:27:00
5:40 AM,15.8,12.2,86,30.30,1.2,Calm,Calm,-,N/A,,Overcast,0,2013-01-09 12:40:00
5:43 AM,15.8,12.2,86,30.30,0.2,Calm,Calm,-,N/A,Fog,Light Freezing Fog,0,2013-01-09 12:43:00
5:51 AM,16.0,15.1,96,30.41,0.2,Calm,Calm,-,N/A,Fog,Light Freezing Fog,0,2013-01-09 12:51:00
6:40 AM,15.8,14.0,93,30.29,1.8,Calm,Calm,-,N/A,,Mostly Cloudy,0,2013-01-09 13:40:00
6:45 AM,15.8,12.2,86,30.29,2.0,Calm,Calm,-,N/A,,Scattered Clouds,0,2013-01-09 13:45:00
6:51 AM,14.0,10.9,88,30.41,2.0,Calm,Calm,-,N/A,,Scattered Clouds,0,2013-01-09 13:51:00
7:10 AM,14.0,12.2,93,30.28,3.0,Calm,Calm,-,N/A,,Clear,0,2013-01-09 14:10:00
7:51 AM,16.0,12.9,88,30.40,3.0,Calm,Calm,-,N/A,,Clear,0,2013-01-09 14:51:00
7:58 AM,15.8,10.4,79,30.29,2.5,Calm,Calm,-,N/A,,Clear,0,2013-01-09 14:58:00
8:11 AM,12.2,10.4,92,30.29,0.5,SSW,4.6,-,N/A,Fog,Light Freezing Fog,200,2013-01-09 15:11:00
8:51 AM,8.1,7.0,95,30.43,0.2,Calm,Calm,-,N/A,Fog,Light Freezing Fog,0,2013-01-09 15:51:00
9:51 AM,10.9,9.0,92,30.40,0.2,Calm,Calm,-,N/A,Fog,Light Freezing Fog,0,2013-01-09 16:51:00
11:51 AM,19.9,16.0,85,30.28,0.2,Calm,Calm,-,N/A,Fog,Light Freezing Fog,0,2013-01-09 18:51:00
12:51 PM,19.9,17.1,89,30.22,0.2,Calm,Calm,-,N/A,Fog,Light Freezing Fog,0,2013-01-09 19:51:00
1:29 PM,24.8,19.4,80,30.10,1.0,Calm,Calm,-,N/A,,Haze,0,2013-01-09 20:29:00
1:36 PM,24.8,19.4,80,30.09,1.2,Calm,Calm,-,N/A,,Haze,0,2013-01-09 20:36:00
1:51 PM,23.0,19.0,85,30.17,1.5,Calm,Calm,-,N/A,,Clear,0,2013-01-09 20:51:00
2:51 PM,21.9,19.0,89,30.17,1.8,West,4.6,-,N/A,,Clear,270,2013-01-09 21:51:00
3:13 PM,23.0,19.4,86,30.08,2.0,Calm,Calm,-,N/A,,Clear,0,2013-01-09 22:13:00
3:51 PM,24.1,19.9,84,30.16,2.0,Calm,Calm,-,N/A,,Clear,0,2013-01-09 22:51:00
4:39 PM,19.4,17.6,93,30.05,1.8,WNW,5.8,-,N/A,,Clear,300,2013-01-09 23:39:00
4:51 PM,21.0,18.0,88,30.15,1.8,Variable,3.5,-,N/A,,Clear,0,2013-01-09 23:51:00
5:23 PM,21.2,17.6,86,30.02,2.5,SW,3.5,-,N/A,,Clear,220,2013-01-10 00:23:00
5:51 PM,19.0,16.0,88,30.14,2.5,Calm,Calm,-,N/A,,Clear,0,2013-01-10 00:51:00
6:51 PM,19.0,16.0,88,30.11,2.5,East,4.6,-,N/A,,Clear,80,2013-01-10 01:51:00
7:51 PM,18.0,15.1,88,30.07,1.8,Calm,Calm,-,N/A,,Clear,0,2013-01-10 02:51:00
7:59 PM,17.6,15.8,93,29.93,2.0,NW,4.6,-,N/A,,Clear,320,2013-01-10 02:59:00
8:51 PM,17.1,15.1,92,30.06,2.0,Calm,Calm,-,N/A,,Clear,0,2013-01-10 03:51:00
9:17 PM,19.4,17.6,93,29.90,1.5,WSW,5.8,-,N/A,,Clear,240,2013-01-10 04:17:00
9:31 PM,17.6,15.8,93,29.88,1.5,Calm,Calm,-,N/A,,Partly Cloudy,0,2013-01-10 04:31:00
9:42 PM,17.6,15.8,93,29.87,1.8,Calm,Calm,-,N/A,,Mostly Cloudy,0,2013-01-10 04:42:00
9:49 PM,17.6,15.8,93,29.87,2.0,Calm,Calm,-,N/A,,Scattered Clouds,0,2013-01-10 04:49:00
9:51 PM,19.0,16.0,88,30.01,1.8,SW,3.5,-,N/A,,Scattered Clouds,230,2013-01-10 04:51:00
10:51 PM,19.0,18.0,96,29.98,1.5,Calm,Calm,-,N/A,,Clear,0,2013-01-10 05:51:00
11:06 PM,17.6,15.8,93,29.84,2.0,NNE,4.6,-,N/A,,Clear,20,2013-01-10 06:06:00
11:51 PM,19.9,18.0,92,29.91,1.5,NNW,4.6,-,N/A,,Clear,330,2013-01-10 06:51:00